Weather History for KBID - April, 2013

Change the Weather History Date:

Sunday, April 14, 2013

  Actual Average (KGON) Record (KGON)
Temperature  
Mean Temperature 48 °F -  
Max Temperature 55 °F 54 °F - (-1)
Min Temperature 42 °F 36 °F - (-1)
Degree Days  
Heating Degree Days 16    
Moisture  
Dew Point 34 °F    
Average Humidity 61    
Maximum Humidity 81    
Minimum Humidity 41    
Precipitation  
Precipitation 0.00 in - - ()
Sea Level Pressure  
Sea Level Pressure 30.04 in    
Wind  
Wind Speed 11 mph (West)    
Max Wind Speed 16 mph    
Max Gust Speed 23 mph    
Visibility 10 miles    
Events      
Averages and records for this station are not official NWS values.
T = Trace of Precipitation, MM = Missing Value Source: NWS Daily Summary

Daily Weather History Graph

Daily Weather History Graph

Search for Another Location

Airport or City:

Trip Planner

Search our weather history database for the weather conditions in past years. The results will help you decide how hot, cold, wet, or windy it might be!

Date:

Astronomy

Apr. 14, 2013 Rise Set
Actual Time 6:08 AM EDT 7:25 PM EDT
Civil Twilight 5:39 AM EDT 7:54 PM EDT
Nautical Twilight 5:05 AM EDT 8:28 PM EDT
Astronomical Twilight 4:29 AM EDT 9:04 PM EDT
Moon 8:41 AM EDT (4/14) 11:38 PM EDT (4/14)
Length of Visible Light 14h 14m
Length of Day
13h 17m
Waxing Crescent, 17% of the Moon is Illuminated
Apr 14
Waxing Crescent
Apr 18
First Quarter
Apr 25
Full
May 2
Last Quarter
May 9
New

Hourly Weather History & Observations

Time (EDT) Temp. Windchill Dew Point Humidity Pressure Visibility Wind Dir Wind Speed Gust Speed Precip Events Conditions
12:15 AM 42.8 °F 36.6 °F 37.4 °F 81% 29.96 in 10.0 mi SW 11.5 mph - N/A   Clear
12:35 AM 42.8 °F 36.6 °F 37.4 °F 81% 29.96 in 10.0 mi SW 11.5 mph - N/A   Clear
12:55 AM 42.8 °F 36.6 °F 37.4 °F 81% 29.97 in 10.0 mi SW 11.5 mph - N/A   Clear
1:15 AM 42.8 °F 36.2 °F 37.4 °F 81% 29.97 in 10.0 mi SW 12.7 mph - N/A   Clear
1:35 AM 42.8 °F 36.6 °F 37.4 °F 81% 29.96 in 10.0 mi WSW 11.5 mph - N/A   Mostly Cloudy
1:55 AM 44.6 °F 38.1 °F 37.4 °F 76% 29.96 in 10.0 mi SW 13.8 mph - N/A   Overcast
2:15 AM 44.6 °F 37.8 °F 37.4 °F 76% 29.97 in 10.0 mi WSW 15.0 mph - N/A   Overcast
2:55 AM 44.6 °F 38.8 °F 39.2 °F 81% 29.96 in 10.0 mi WSW 11.5 mph - N/A   Overcast
3:15 AM 44.6 °F 39.7 °F 39.2 °F 81% 29.96 in 10.0 mi WSW 9.2 mph - N/A   Overcast
3:35 AM 44.6 °F 40.2 °F 39.2 °F 81% 29.96 in 10.0 mi WSW 8.1 mph - N/A   Overcast
3:55 AM 44.6 °F 40.7 °F 39.2 °F 81% 29.96 in 10.0 mi WSW 6.9 mph - N/A   Overcast
4:15 AM 44.6 °F 39.2 °F 37.4 °F 76% 29.96 in 10.0 mi SW 10.4 mph - N/A   Overcast
4:35 AM 46.4 °F 41.1 °F 37.4 °F 71% 29.96 in 10.0 mi WSW 11.5 mph - N/A   Overcast
4:55 AM 46.4 °F 41.9 °F 37.4 °F 71% 29.96 in 10.0 mi WSW 9.2 mph - N/A   Overcast
5:15 AM 46.4 °F 41.9 °F 37.4 °F 71% 29.96 in 10.0 mi WSW 9.2 mph - N/A   Overcast
5:35 AM 44.6 °F 39.7 °F 39.2 °F 81% 29.96 in 10.0 mi SW 9.2 mph - N/A   Overcast
5:55 AM 46.4 °F 41.1 °F 39.2 °F 76% 29.97 in 10.0 mi WSW 11.5 mph - N/A   Overcast
6:15 AM 44.6 °F 38.4 °F 39.2 °F 81% 29.98 in 10.0 mi WSW 12.7 mph - N/A   Overcast
6:35 AM 46.4 °F 40.7 °F 39.2 °F 76% 29.98 in 10.0 mi WSW 12.7 mph 17.3 mph N/A   Overcast
6:55 AM 46.4 °F 41.1 °F 37.4 °F 71% 29.98 in 10.0 mi WSW 11.5 mph - N/A   Overcast
7:15 AM 46.4 °F 41.1 °F 39.2 °F 76% 30.00 in 10.0 mi WSW 11.5 mph - N/A   Overcast
7:35 AM 46.4 °F 40.7 °F 37.4 °F 71% 30.00 in 10.0 mi WSW 12.7 mph - N/A   Overcast
7:55 AM 46.4 °F 40.7 °F 37.4 °F 71% 30.01 in 10.0 mi WSW 12.7 mph - N/A   Overcast
8:15 AM 46.4 °F 40.4 °F 39.2 °F 76% 30.01 in 10.0 mi WSW 13.8 mph - N/A   Overcast
8:35 AM 46.4 °F 40.4 °F 39.2 °F 76% 30.01 in 10.0 mi SW 13.8 mph - N/A   Overcast
8:55 AM 48.2 °F - 39.2 °F 71% 30.01 in 10.0 mi WSW 10.4 mph - N/A   Overcast
9:15 AM 50.0 °F - 39.2 °F 66% 30.01 in 10.0 mi WSW 11.5 mph - N/A   Overcast
9:35 AM 50.0 °F - 39.2 °F 66% 30.00 in 10.0 mi WSW 10.4 mph - N/A   Mostly Cloudy
9:55 AM 53.6 °F - 37.4 °F 54% 30.00 in 10.0 mi WSW 15.0 mph 18.4 mph N/A   Clear
10:15 AM 53.6 °F - 37.4 °F 54% 30.01 in 10.0 mi WSW 13.8 mph 20.7 mph N/A   Clear
10:35 AM 51.8 °F - 39.2 °F 62% 30.01 in 10.0 mi WSW 13.8 mph 19.6 mph N/A   Clear
10:55 AM 53.6 °F - 39.2 °F 58% 30.02 in 10.0 mi SW 15.0 mph - N/A   Clear
11:15 AM 53.6 °F - 39.2 °F 58% 30.02 in 10.0 mi WSW 15.0 mph 19.6 mph N/A   Scattered Clouds
11:35 AM 51.8 °F - 35.6 °F 54% 30.02 in 10.0 mi WSW 16.1 mph 21.9 mph N/A   Overcast
11:55 AM 51.8 °F - 37.4 °F 58% 30.02 in 10.0 mi WSW 15.0 mph 18.4 mph N/A   Overcast
12:15 PM 51.8 °F - 35.6 °F 54% 30.02 in 10.0 mi WSW 12.7 mph - N/A   Overcast
12:35 PM 51.8 °F - 35.6 °F 54% 30.01 in 10.0 mi West 12.7 mph - N/A   Overcast
12:55 PM 55.4 °F - 37.4 °F 51% 30.01 in 10.0 mi West 13.8 mph 18.4 mph N/A   Overcast
1:15 PM 53.6 °F - 35.6 °F 51% 30.01 in 10.0 mi West 9.2 mph 18.4 mph N/A   Overcast
1:35 PM 53.6 °F - 35.6 °F 51% 30.01 in 10.0 mi West 9.2 mph - N/A   Mostly Cloudy
1:55 PM 53.6 °F - 35.6 °F 51% 30.02 in 10.0 mi West 15.0 mph 20.7 mph N/A   Overcast
2:15 PM 53.6 °F - 33.8 °F 47% 30.02 in 10.0 mi West 16.1 mph 23.0 mph N/A   Overcast
2:35 PM 53.6 °F - 35.6 °F 51% 30.01 in 10.0 mi West 15.0 mph 21.9 mph N/A   Partly Cloudy
2:55 PM 53.6 °F - 35.6 °F 51% 30.02 in 10.0 mi WNW 13.8 mph 19.6 mph N/A   Partly Cloudy
3:15 PM 53.6 °F - 35.6 °F 51% 30.02 in 10.0 mi WNW 10.4 mph 17.3 mph N/A   Partly Cloudy
3:35 PM 51.8 °F - 33.8 °F 50% 30.03 in 10.0 mi NW 13.8 mph 20.7 mph N/A   Scattered Clouds
4:15 PM 51.8 °F - 33.8 °F 50% 30.03 in 10.0 mi NNW 12.7 mph 19.6 mph N/A   Clear
4:35 PM 51.8 °F - 32.0 °F 47% 30.04 in 10.0 mi NW 11.5 mph 18.4 mph N/A   Clear
4:55 PM 53.6 °F - 30.2 °F 41% 30.04 in 10.0 mi NW 11.5 mph 18.4 mph N/A   Partly Cloudy
5:15 PM 51.8 °F - 30.2 °F 44% 30.06 in 10.0 mi NW 6.9 mph - N/A   Mostly Cloudy
5:35 PM 51.8 °F - 30.2 °F 44% 30.07 in 10.0 mi NW 11.5 mph 20.7 mph N/A   Mostly Cloudy
5:55 PM 51.8 °F - 28.4 °F 41% 30.08 in 10.0 mi NNW 10.4 mph 17.3 mph N/A   Mostly Cloudy
6:15 PM 50.0 °F - 28.4 °F 43% 30.09 in 10.0 mi NNW 11.5 mph - N/A   Mostly Cloudy
6:35 PM 48.2 °F - 30.2 °F 50% 30.09 in 10.0 mi NNW 11.5 mph 17.3 mph N/A   Partly Cloudy
6:55 PM 48.2 °F - 30.2 °F 50% 30.10 in 10.0 mi NNW 9.2 mph 19.6 mph N/A   Clear
7:15 PM 46.4 °F 42.4 °F 30.2 °F 53% 30.12 in 10.0 mi NNW 8.1 mph - N/A   Clear
7:35 PM 46.4 °F 41.1 °F 28.4 °F 50% 30.13 in 10.0 mi NNW 11.5 mph 16.1 mph N/A   Clear
7:55 PM 46.4 °F 41.5 °F 28.4 °F 50% 30.15 in 10.0 mi NNW 10.4 mph - N/A   Clear
8:15 PM 46.4 °F 41.5 °F 28.4 °F 50% 30.17 in 10.0 mi NNW 10.4 mph - N/A   Clear
8:35 PM 46.4 °F 42.4 °F 28.4 °F 50% 30.18 in 10.0 mi NNW 8.1 mph - N/A   Clear
8:55 PM 44.6 °F 40.2 °F 28.4 °F 53% 30.19 in 10.0 mi NNW 8.1 mph - N/A   Clear
9:15 PM 44.6 °F 38.8 °F 26.6 °F 49% 30.20 in 10.0 mi NNW 11.5 mph - N/A   Clear
9:35 PM 44.6 °F 39.7 °F 26.6 °F 49% 30.21 in 10.0 mi NNW 9.2 mph 16.1 mph N/A   Clear
9:55 PM 44.6 °F 40.2 °F 26.6 °F 49% 30.21 in 10.0 mi NNW 8.1 mph - N/A   Clear
10:15 PM 44.6 °F 40.2 °F 26.6 °F 49% 30.21 in 10.0 mi NW 8.1 mph - N/A   Clear
10:35 PM 44.6 °F 40.2 °F 26.6 °F 49% 30.21 in 10.0 mi NW 8.1 mph - N/A   Clear
10:55 PM 44.6 °F 40.7 °F 24.8 °F 46% 30.22 in 10.0 mi NW 6.9 mph - N/A   Clear
11:15 PM 44.6 °F 40.7 °F 26.6 °F 49% 30.21 in 10.0 mi NNW 6.9 mph - N/A   Clear
11:35 PM 42.8 °F 38.0 °F 26.6 °F 53% 30.22 in 10.0 mi NNW 8.1 mph - N/A   Clear
11:55 PM 42.8 °F 38.0 °F 26.6 °F 53% 30.22 in 10.0 mi NNW 8.1 mph - N/A   Clear